Time,TemperatureF,DewpointF,PressureIn,WindDirection,WindDirectionDegrees,WindSpeedMPH,WindSpeedGustMPH,Humidity,HourlyPrecipIn,Conditions,Clouds,dailyrainin,SoftwareType,DateUTC
2013-10-20 00:00:00,28.0,27.0,29.80,WNW,289,0.0,1.0,96,0.00,,,0.00,VWS V14.01,2013-10-20 05:00:00,
2013-10-20 00:30:00,27.9,26.9,29.79,WNW,289,0.0,2.0,96,0.00,,,0.00,VWS V14.01,2013-10-20 05:30:00,
2013-10-20 01:00:00,27.4,26.4,29.78,WNW,289,0.0,1.0,96,0.00,,,0.00,VWS V14.01,2013-10-20 06:00:00,
2013-10-20 01:30:00,27.5,26.5,29.78,WNW,289,0.0,1.0,96,0.00,,,0.00,VWS V14.01,2013-10-20 06:30:00,
2013-10-20 01:53:00,27.0,26.3,29.78,WNW,289,0.0,0.0,97,0.00,,,0.00,VWS V14.01,2013-10-20 06:53:00,
2013-10-20 01:58:00,26.9,25.9,29.77,WNW,289,0.0,0.0,96,0.00,,,0.00,VWS V14.01,2013-10-20 06:58:00,
2013-10-20 02:00:00,26.9,25.9,29.78,WNW,289,0.0,0.0,96,0.00,,,0.00,VWS V14.01,2013-10-20 07:00:00,
2013-10-20 02:03:00,26.8,25.8,29.78,WNW,289,0.0,0.0,96,0.00,,,0.00,VWS V14.01,2013-10-20 07:03:00,
2013-10-20 02:08:00,27.0,26.0,29.78,WNW,289,0.0,0.0,96,0.00,,,0.00,VWS V14.01,2013-10-20 07:08:00,
2013-10-20 02:13:00,27.0,26.3,29.78,WNW,289,0.0,0.0,97,0.00,,,0.00,VWS V14.01,2013-10-20 07:13:00,
2013-10-20 02:18:00,26.9,25.9,29.78,WNW,289,0.0,0.0,96,0.00,,,0.00,VWS V14.01,2013-10-20 07:18:00,
2013-10-20 02:23:00,27.1,26.4,29.78,WNW,289,0.0,0.0,97,0.00,,,0.00,VWS V14.01,2013-10-20 07:23:00,
2013-10-20 02:28:00,27.1,26.4,29.78,WNW,289,0.0,0.0,97,0.00,,,0.00,VWS V14.01,2013-10-20 07:28:00,
2013-10-20 02:30:00,27.0,26.3,29.78,WNW,289,0.0,0.0,97,0.00,,,0.00,VWS V14.01,2013-10-20 07:30:00,
2013-10-20 02:33:00,27.0,26.3,29.78,WNW,289,0.0,0.0,97,0.00,,,0.00,VWS V14.01,2013-10-20 07:33:00,
2013-10-20 02:38:00,26.9,26.2,29.78,WNW,289,0.0,0.0,97,0.00,,,0.00,VWS V14.01,2013-10-20 07:38:00,
2013-10-20 02:43:00,26.8,26.1,29.78,WNW,289,0.0,0.0,97,0.00,,,0.00,VWS V14.01,2013-10-20 07:43:00,
2013-10-20 02:48:00,26.9,26.2,29.78,WNW,289,0.0,1.0,97,0.00,,,0.00,VWS V14.01,2013-10-20 07:48:00,
2013-10-20 02:53:00,26.7,26.0,29.78,WNW,289,0.0,1.0,97,0.00,,,0.00,VWS V14.01,2013-10-20 07:53:00,
2013-10-20 02:58:00,26.6,25.9,29.77,WNW,289,0.0,1.0,97,0.00,,,0.00,VWS V14.01,2013-10-20 07:58:00,
2013-10-20 03:00:00,26.7,26.0,29.77,WNW,289,0.0,1.0,97,0.00,,,0.00,VWS V14.01,2013-10-20 08:00:00,
2013-10-20 03:03:00,26.6,25.9,29.77,WNW,289,0.0,1.0,97,0.00,,,0.00,VWS V14.01,2013-10-20 08:03:00,
2013-10-20 03:08:00,26.6,25.9,29.77,WNW,289,0.0,1.0,97,0.00,,,0.00,VWS V14.01,2013-10-20 08:08:00,
2013-10-20 03:13:00,26.3,25.6,29.77,WNW,289,0.0,1.0,97,0.00,,,0.00,VWS V14.01,2013-10-20 08:13:00,
2013-10-20 03:18:00,26.2,25.5,29.77,WNW,289,0.0,1.0,97,0.00,,,0.00,VWS V14.01,2013-10-20 08:18:00,
2013-10-20 03:23:00,26.3,25.6,29.77,WNW,289,0.0,1.0,97,0.00,,,0.00,VWS V14.01,2013-10-20 08:23:00,
2013-10-20 03:28:00,26.4,25.7,29.77,WNW,289,0.0,1.0,97,0.00,,,0.00,VWS V14.01,2013-10-20 08:28:00,
2013-10-20 03:30:00,26.3,25.6,29.76,WNW,289,0.0,1.0,97,0.00,,,0.00,VWS V14.01,2013-10-20 08:30:00,
2013-10-20 03:33:00,26.2,25.5,29.76,WNW,289,0.0,0.0,97,0.00,,,0.00,VWS V14.01,2013-10-20 08:33:00,
2013-10-20 03:38:00,26.2,25.5,29.76,WNW,289,0.0,0.0,97,0.00,,,0.00,VWS V14.01,2013-10-20 08:38:00,
2013-10-20 03:43:00,26.3,25.6,29.76,WNW,289,0.0,0.0,97,0.00,,,0.00,VWS V14.01,2013-10-20 08:43:00,
2013-10-20 03:48:00,26.2,25.5,29.76,WNW,289,0.0,0.0,97,0.00,,,0.00,VWS V14.01,2013-10-20 08:48:00,
2013-10-20 03:53:00,26.5,25.8,29.76,WNW,289,0.0,0.0,97,0.00,,,0.00,VWS V14.01,2013-10-20 08:53:00,
2013-10-20 03:58:00,26.9,26.2,29.76,WNW,289,0.0,0.0,97,0.00,,,0.00,VWS V14.01,2013-10-20 08:58:00,
2013-10-20 04:00:00,27.0,26.3,29.76,WNW,289,0.0,0.0,97,0.00,,,0.00,VWS V14.01,2013-10-20 09:00:00,
2013-10-20 04:03:00,27.0,26.3,29.76,WNW,289,0.0,0.0,97,0.00,,,0.00,VWS V14.01,2013-10-20 09:03:00,
2013-10-20 04:08:00,26.8,26.1,29.76,WNW,289,0.0,1.0,97,0.00,,,0.00,VWS V14.01,2013-10-20 09:08:00,
2013-10-20 04:13:00,26.9,26.2,29.76,WNW,289,0.0,1.0,97,0.00,,,0.00,VWS V14.01,2013-10-20 09:13:00,
2013-10-20 04:18:00,26.7,26.0,29.76,WNW,289,0.0,1.0,97,0.00,,,0.00,VWS V14.01,2013-10-20 09:18:00,
2013-10-20 04:23:00,26.7,26.0,29.76,WNW,289,0.0,1.0,97,0.00,,,0.00,VWS V14.01,2013-10-20 09:23:00,
2013-10-20 04:28:00,26.7,26.0,29.76,WNW,289,1.0,1.0,97,0.00,,,0.00,VWS V14.01,2013-10-20 09:28:00,
2013-10-20 04:30:00,26.8,26.1,29.76,WNW,289,1.0,1.0,97,0.00,,,0.00,VWS V14.01,2013-10-20 09:30:00,
2013-10-20 04:33:00,26.9,26.2,29.76,WNW,289,0.0,1.0,97,0.00,,,0.00,VWS V14.01,2013-10-20 09:33:00,
2013-10-20 04:38:00,27.1,26.4,29.76,WNW,289,0.0,1.0,97,0.00,,,0.00,VWS V14.01,2013-10-20 09:38:00,
2013-10-20 04:43:00,27.2,26.5,29.76,WNW,289,1.0,1.0,97,0.00,,,0.00,VWS V14.01,2013-10-20 09:43:00,
2013-10-20 04:48:00,27.1,26.4,29.76,WNW,289,0.0,1.0,97,0.00,,,0.00,VWS V14.01,2013-10-20 09:48:00,
2013-10-20 04:53:00,27.2,26.5,29.76,WNW,289,0.0,1.0,97,0.00,,,0.00,VWS V14.01,2013-10-20 09:53:00,
2013-10-20 04:58:00,27.3,26.6,29.76,WNW,289,0.0,1.0,97,0.00,,,0.00,VWS V14.01,2013-10-20 09:58:00,
2013-10-20 05:00:00,27.4,26.7,29.76,WNW,289,0.0,1.0,97,0.00,,,0.00,VWS V14.01,2013-10-20 10:00:00,
2013-10-20 05:03:00,27.4,26.7,29.76,WNW,289,0.0,0.0,97,0.00,,,0.00,VWS V14.01,2013-10-20 10:03:00,
2013-10-20 05:08:00,27.6,26.9,29.76,WNW,289,0.0,0.0,97,0.00,,,0.00,VWS V14.01,2013-10-20 10:08:00,
2013-10-20 05:13:00,27.9,27.2,29.76,WNW,289,0.0,0.0,97,0.00,,,0.00,VWS V14.01,2013-10-20 10:13:00,
2013-10-20 05:18:00,28.0,27.3,29.76,WNW,289,0.0,0.0,97,0.00,,,0.00,VWS V14.01,2013-10-20 10:18:00,
2013-10-20 05:23:00,28.1,27.4,29.76,WNW,289,1.0,1.0,97,0.00,,,0.00,VWS V14.01,2013-10-20 10:23:00,
2013-10-20 05:28:00,28.0,27.3,29.76,WNW,289,0.0,1.0,97,0.00,,,0.00,VWS V14.01,2013-10-20 10:28:00,
2013-10-20 05:30:00,28.0,27.3,29.76,WNW,289,0.0,1.0,97,0.00,,,0.00,VWS V14.01,2013-10-20 10:30:00,
2013-10-20 05:33:00,28.0,27.3,29.76,WNW,289,0.0,0.0,97,0.00,,,0.00,VWS V14.01,2013-10-20 10:33:00,
2013-10-20 05:38:00,28.1,27.4,29.76,WNW,289,0.0,0.0,97,0.00,,,0.00,VWS V14.01,2013-10-20 10:38:00,
2013-10-20 05:43:00,28.1,27.4,29.76,WNW,289,0.0,1.0,97,0.00,,,0.00,VWS V14.01,2013-10-20 10:43:00,
2013-10-20 05:48:00,28.4,27.7,29.76,WNW,289,0.0,1.0,97,0.00,,,0.00,VWS V14.01,2013-10-20 10:48:00,
2013-10-20 05:53:00,28.4,27.7,29.76,WNW,289,0.0,1.0,97,0.00,,,0.00,VWS V14.01,2013-10-20 10:53:00,
2013-10-20 05:58:00,28.6,27.9,29.76,WNW,289,0.0,1.0,97,0.00,,,0.00,VWS V14.01,2013-10-20 10:58:00,
2013-10-20 06:00:00,28.6,27.9,29.76,WNW,289,1.0,1.0,97,0.00,,,0.00,VWS V14.01,2013-10-20 11:00:00,
2013-10-20 06:03:00,28.7,28.0,29.76,WNW,289,1.0,1.0,97,0.00,,,0.00,VWS V14.01,2013-10-20 11:03:00,
2013-10-20 06:08:00,28.9,28.2,29.76,WNW,289,1.0,2.0,97,0.00,,,0.00,VWS V14.01,2013-10-20 11:08:00,
2013-10-20 06:13:00,29.0,28.3,29.75,WNW,289,1.0,2.0,97,0.00,,,0.00,VWS V14.01,2013-10-20 11:13:00,
2013-10-20 06:18:00,29.2,28.5,29.75,WNW,289,1.0,2.0,97,0.00,,,0.00,VWS V14.01,2013-10-20 11:18:00,
2013-10-20 06:23:00,29.1,28.4,29.75,WNW,289,0.0,2.0,97,0.00,,,0.00,VWS V14.01,2013-10-20 11:23:00,
2013-10-20 06:28:00,29.1,28.4,29.75,WNW,289,1.0,2.0,97,0.00,,,0.00,VWS V14.01,2013-10-20 11:28:00,
2013-10-20 06:30:00,29.1,28.4,29.75,WNW,289,0.0,2.0,97,0.00,,,0.00,VWS V14.01,2013-10-20 11:30:00,
2013-10-20 06:33:00,29.1,28.4,29.75,WNW,289,0.0,1.0,97,0.00,,,0.00,VWS V14.01,2013-10-20 11:33:00,
2013-10-20 06:38:00,29.0,28.3,29.75,WNW,289,0.0,1.0,97,0.00,,,0.00,VWS V14.01,2013-10-20 11:38:00,
2013-10-20 06:43:00,29.2,28.5,29.75,WNW,289,0.0,1.0,97,0.00,,,0.00,VWS V14.01,2013-10-20 11:43:00,
2013-10-20 06:48:00,29.1,28.4,29.75,WNW,289,0.0,1.0,97,0.00,,,0.00,VWS V14.01,2013-10-20 11:48:00,
2013-10-20 06:53:00,29.1,28.4,29.75,WNW,289,0.0,1.0,97,0.00,,,0.00,VWS V14.01,2013-10-20 11:53:00,
2013-10-20 06:58:00,29.0,28.3,29.75,WNW,289,0.0,1.0,97,0.00,,,0.00,VWS V14.01,2013-10-20 11:58:00,
2013-10-20 07:00:00,29.0,28.3,29.75,WNW,289,0.0,1.0,97,0.00,,,0.00,VWS V14.01,2013-10-20 12:00:00,
2013-10-20 07:03:00,29.1,28.4,29.75,WNW,289,0.0,0.0,97,0.00,,,0.00,VWS V14.01,2013-10-20 12:03:00,
2013-10-20 07:08:00,29.3,28.8,29.75,WNW,289,0.0,0.0,98,0.00,,,0.00,VWS V14.01,2013-10-20 12:08:00,
2013-10-20 07:13:00,29.3,28.8,29.75,WNW,289,0.0,0.0,98,0.00,,,0.00,VWS V14.01,2013-10-20 12:13:00,
2013-10-20 07:18:00,29.4,28.9,29.75,WNW,289,0.0,0.0,98,0.00,,,0.00,VWS V14.01,2013-10-20 12:18:00,
2013-10-20 07:23:00,29.7,29.2,29.74,WNW,289,1.0,1.0,98,0.00,,,0.00,VWS V14.01,2013-10-20 12:23:00,
2013-10-20 07:28:00,29.8,29.3,29.74,WNW,289,1.0,1.0,98,0.00,,,0.00,VWS V14.01,2013-10-20 12:28:00,
2013-10-20 07:30:00,29.9,29.4,29.74,WNW,289,1.0,2.0,98,0.00,,,0.00,VWS V14.01,2013-10-20 12:30:00,
2013-10-20 07:33:00,30.0,29.5,29.74,WNW,289,2.0,2.0,98,0.00,,,0.00,VWS V14.01,2013-10-20 12:33:00,
2013-10-20 07:38:00,30.2,29.7,29.74,East,87,3.0,3.0,98,0.00,,,0.00,VWS V14.01,2013-10-20 12:38:00,
2013-10-20 07:43:00,30.4,29.9,29.74,East,88,2.0,3.0,98,0.00,,,0.00,VWS V14.01,2013-10-20 12:43:00,
2013-10-20 07:47:00,30.5,30.0,29.73,ESE,105,3.0,4.0,98,0.00,,,0.00,VWS V14.01,2013-10-20 12:47:00,
2013-10-20 07:52:00,30.6,30.1,29.73,ESE,106,3.0,4.0,98,0.00,,,0.00,VWS V14.01,2013-10-20 12:52:00,
2013-10-20 07:57:00,30.6,30.1,29.74,ESE,106,1.0,4.0,98,0.00,,,0.00,VWS V14.01,2013-10-20 12:57:00,
2013-10-20 08:00:00,30.7,30.2,29.74,ESE,106,2.0,4.0,98,0.00,,,0.00,VWS V14.01,2013-10-20 13:00:00,
2013-10-20 08:02:00,30.7,30.2,29.74,ESE,106,2.0,3.0,98,0.00,,,0.00,VWS V14.01,2013-10-20 13:02:00,
2013-10-20 08:07:00,30.7,30.2,29.74,ESE,106,2.0,3.0,98,0.00,,,0.00,VWS V14.01,2013-10-20 13:07:00,
2013-10-20 08:12:00,30.8,30.3,29.74,ESE,107,3.0,3.0,98,0.00,,,0.00,VWS V14.01,2013-10-20 13:12:00,
2013-10-20 08:17:00,30.8,30.3,29.74,ESE,104,2.0,4.0,98,0.00,,,0.00,VWS V14.01,2013-10-20 13:17:00,
2013-10-20 08:22:00,31.0,30.5,29.73,East,98,3.0,4.0,98,0.00,,,0.00,VWS V14.01,2013-10-20 13:22:00,
2013-10-20 08:27:00,31.1,30.6,29.73,ESE,107,3.0,4.0,98,0.00,,,0.00,VWS V14.01,2013-10-20 13:27:00,
2013-10-20 08:30:00,31.2,30.7,29.73,ESE,113,2.0,4.0,98,0.00,,,0.00,VWS V14.01,2013-10-20 13:30:00,
2013-10-20 08:32:00,31.2,30.7,29.73,ESE,118,3.0,4.0,98,0.00,,,0.00,VWS V14.01,2013-10-20 13:32:00,
2013-10-20 08:37:00,31.3,30.8,29.74,ESE,118,2.0,4.0,98,0.00,,,0.00,VWS V14.01,2013-10-20 13:37:00,
2013-10-20 08:42:00,31.4,30.9,29.74,SE,128,2.0,4.0,98,0.00,,,0.00,VWS V14.01,2013-10-20 13:42:00,
2013-10-20 08:47:00,31.5,31.0,29.74,ESE,123,2.0,4.0,98,0.00,,,0.00,VWS V14.01,2013-10-20 13:47:00,
2013-10-20 08:52:00,31.6,31.1,29.74,ESE,123,2.0,4.0,98,0.00,,,0.00,VWS V14.01,2013-10-20 13:52:00,
2013-10-20 08:57:00,31.6,31.1,29.74,SE,130,3.0,4.0,98,0.00,,,0.00,VWS V14.01,2013-10-20 13:57:00,
2013-10-20 09:00:00,31.6,31.1,29.74,SE,134,2.0,4.0,98,0.00,,,0.00,VWS V14.01,2013-10-20 14:00:00,
2013-10-20 09:02:00,31.6,31.1,29.74,SE,134,3.0,4.0,98,0.00,,,0.00,VWS V14.01,2013-10-20 14:02:00,
2013-10-20 09:07:00,31.6,31.1,29.74,SE,128,2.0,4.0,98,0.00,,,0.00,VWS V14.01,2013-10-20 14:07:00,
2013-10-20 09:12:00,31.7,31.2,29.74,ESE,121,2.0,4.0,98,0.00,,,0.00,VWS V14.01,2013-10-20 14:12:00,
2013-10-20 09:17:00,31.7,31.2,29.74,ESE,123,3.0,5.0,98,0.00,,,0.00,VWS V14.01,2013-10-20 14:17:00,
2013-10-20 09:30:00,31.7,31.2,29.74,ESE,117,3.0,5.0,98,0.00,,,0.00,VWS V14.01,2013-10-20 14:30:00,
2013-10-20 10:00:00,31.9,31.4,29.74,ESE,112,2.0,4.0,98,0.00,,,0.00,VWS V14.01,2013-10-20 15:00:00,
2013-10-20 10:30:00,32.3,31.8,29.73,SE,126,2.0,3.0,98,0.00,,,0.00,VWS V14.01,2013-10-20 15:30:00,
2013-10-20 11:00:00,32.6,32.1,29.73,ESE,115,3.0,4.0,98,0.00,,,0.00,VWS V14.01,2013-10-20 16:00:00,
2013-10-20 11:30:00,32.7,32.2,29.73,ESE,120,2.0,3.0,98,0.00,,,0.00,VWS V14.01,2013-10-20 16:30:00,
2013-10-20 11:54:00,32.6,32.1,29.72,ESE,113,2.0,3.0,98,0.00,,,0.00,VWS V14.01,2013-10-20 16:54:00,
2013-10-20 11:59:00,32.6,32.1,29.72,ESE,113,1.0,3.0,98,0.00,,,0.00,VWS V14.01,2013-10-20 16:59:00,
2013-10-20 12:00:00,32.6,32.1,29.73,ESE,113,1.0,3.0,98,0.00,,,0.00,VWS V14.01,2013-10-20 17:00:00,
2013-10-20 12:04:00,32.6,32.1,29.73,ESE,113,1.0,2.0,98,0.00,,,0.00,VWS V14.01,2013-10-20 17:04:00,
2013-10-20 12:30:00,32.8,32.3,29.72,East,94,2.0,3.0,98,0.00,,,0.00,VWS V14.01,2013-10-20 17:30:00,
2013-10-20 13:00:00,32.8,32.3,29.70,East,83,2.0,5.0,98,0.00,,,0.00,VWS V14.01,2013-10-20 18:00:00,
2013-10-20 13:30:00,32.9,32.4,29.69,East,86,2.0,6.0,98,0.01,,,0.01,VWS V14.01,2013-10-20 18:30:00,
2013-10-20 14:00:00,32.9,32.4,29.69,NE,54,2.0,6.0,98,0.02,,,0.02,VWS V14.01,2013-10-20 19:00:00,
2013-10-20 14:30:00,33.0,32.5,29.69,NE,36,3.0,6.0,98,0.04,,,0.04,VWS V14.01,2013-10-20 19:30:00,
2013-10-20 15:00:00,33.0,32.5,29.70,North,10,3.0,6.0,98,0.04,,,0.05,VWS V14.01,2013-10-20 20:00:00,
2013-10-20 15:30:00,33.0,32.5,29.70,NNE,13,4.0,5.0,98,0.04,,,0.06,VWS V14.01,2013-10-20 20:30:00,
2013-10-20 16:00:00,33.0,32.5,29.71,North,5,3.0,5.0,98,0.04,,,0.08,VWS V14.01,2013-10-20 21:00:00,
2013-10-20 16:30:00,33.3,32.8,29.72,NNE,18,4.0,7.0,98,0.04,,,0.09,VWS V14.01,2013-10-20 21:30:00,
2013-10-20 16:41:00,33.4,32.6,29.72,North,355,3.0,8.0,97,0.04,,,0.10,VWS V14.01,2013-10-20 21:41:00,
2013-10-20 16:46:00,33.3,32.5,29.73,North,355,5.0,8.0,97,0.05,,,0.11,VWS V14.01,2013-10-20 21:46:00,
2013-10-20 16:51:00,33.3,32.5,29.73,North,355,5.0,8.0,97,0.05,,,0.11,VWS V14.01,2013-10-20 21:51:00,
2013-10-20 16:56:00,33.3,32.5,29.73,NNW,339,6.0,8.0,97,0.05,,,0.11,VWS V14.01,2013-10-20 21:56:00,
2013-10-20 17:00:00,33.4,32.6,29.73,NNW,348,4.0,9.0,97,0.06,,,0.12,VWS V14.01,2013-10-20 22:00:00,
2013-10-20 17:01:00,33.4,32.6,29.73,North,360,6.0,9.0,97,0.06,,,0.12,VWS V14.01,2013-10-20 22:01:00,
2013-10-20 17:06:00,33.4,32.6,29.73,NNW,340,6.0,8.0,97,0.04,,,0.12,VWS V14.01,2013-10-20 22:06:00,
2013-10-20 17:11:00,33.4,32.6,29.74,NNW,348,4.0,8.0,97,0.04,,,0.12,VWS V14.01,2013-10-20 22:11:00,
2013-10-20 17:16:00,33.4,32.6,29.73,NNW,339,4.0,9.0,97,0.04,,,0.12,VWS V14.01,2013-10-20 22:16:00,
2013-10-20 17:21:00,33.5,32.7,29.74,North,355,5.0,9.0,97,0.05,,,0.13,VWS V14.01,2013-10-20 22:21:00,
2013-10-20 17:26:00,33.5,32.7,29.74,NNW,344,4.0,9.0,97,0.05,,,0.13,VWS V14.01,2013-10-20 22:26:00,
2013-10-20 17:30:00,33.5,32.7,29.74,NNW,346,5.0,9.0,97,0.05,,,0.13,VWS V14.01,2013-10-20 22:30:00,
2013-10-20 17:31:00,33.5,32.7,29.74,NNW,340,5.0,9.0,97,0.05,,,0.13,VWS V14.01,2013-10-20 22:31:00,
2013-10-20 17:36:00,33.5,32.7,29.74,NNW,336,2.0,6.0,97,0.04,,,0.13,VWS V14.01,2013-10-20 22:36:00,
2013-10-20 17:41:00,33.5,32.7,29.75,NW,318,4.0,6.0,97,0.04,,,0.13,VWS V14.01,2013-10-20 22:41:00,
2013-10-20 17:46:00,33.4,32.6,29.75,NW,323,3.0,6.0,97,0.05,,,0.14,VWS V14.01,2013-10-20 22:46:00,
2013-10-20 17:51:00,33.3,32.5,29.75,NNW,332,4.0,6.0,97,0.05,,,0.14,VWS V14.01,2013-10-20 22:51:00,
2013-10-20 17:56:00,33.3,32.5,29.75,NNW,335,2.0,6.0,97,0.05,,,0.14,VWS V14.01,2013-10-20 22:56:00,
2013-10-20 18:00:00,33.2,32.4,29.75,NNW,336,2.0,6.0,97,0.05,,,0.14,VWS V14.01,2013-10-20 23:00:00,
2013-10-20 18:01:00,33.2,32.4,29.75,NNW,336,4.0,6.0,97,0.05,,,0.14,VWS V14.01,2013-10-20 23:01:00,
2013-10-20 18:06:00,33.2,32.4,29.75,NW,326,4.0,6.0,97,0.02,,,0.14,VWS V14.01,2013-10-20 23:06:00,
2013-10-20 18:11:00,33.2,32.4,29.76,NW,318,3.0,6.0,97,0.02,,,0.14,VWS V14.01,2013-10-20 23:11:00,
2013-10-20 18:16:00,33.2,32.4,29.76,NW,318,4.0,6.0,97,0.03,,,0.15,VWS V14.01,2013-10-20 23:16:00,
2013-10-20 18:21:00,33.2,32.4,29.76,NW,317,6.0,7.0,97,0.03,,,0.15,VWS V14.01,2013-10-20 23:21:00,
2013-10-20 18:26:00,33.2,32.4,29.76,NW,316,6.0,7.0,97,0.03,,,0.15,VWS V14.01,2013-10-20 23:26:00,
2013-10-20 18:30:00,33.2,32.7,29.76,NW,324,5.0,7.0,98,0.03,,,0.15,VWS V14.01,2013-10-20 23:30:00,
2013-10-20 18:31:00,33.2,32.7,29.76,NW,309,5.0,7.0,98,0.03,,,0.15,VWS V14.01,2013-10-20 23:31:00,
2013-10-20 18:36:00,33.2,32.7,29.77,NNW,331,5.0,6.0,98,0.02,,,0.15,VWS V14.01,2013-10-20 23:36:00,
2013-10-20 18:41:00,33.2,32.7,29.77,NNW,330,5.0,8.0,98,0.02,,,0.15,VWS V14.01,2013-10-20 23:41:00,
2013-10-20 18:46:00,33.2,32.7,29.78,NNW,330,4.0,9.0,98,0.02,,,0.15,VWS V14.01,2013-10-20 23:46:00,
2013-10-20 18:51:00,33.2,32.4,29.78,NW,319,4.0,9.0,97,0.02,,,0.15,VWS V14.01,2013-10-20 23:51:00,
2013-10-20 18:56:00,33.3,32.5,29.78,NW,311,4.0,9.0,97,0.02,,,0.15,VWS V14.01,2013-10-20 23:56:00,
2013-10-20 19:00:00,33.3,32.5,29.79,NW,326,3.0,9.0,97,0.03,,,0.16,VWS V14.01,2013-10-21 00:00:00,
2013-10-20 19:01:00,33.3,32.5,29.79,NW,325,2.0,9.0,97,0.03,,,0.16,VWS V14.01,2013-10-21 00:01:00,
2013-10-20 19:06:00,33.3,32.5,29.79,NW,317,5.0,6.0,97,0.02,,,0.16,VWS V14.01,2013-10-21 00:06:00,
2013-10-20 19:11:00,33.2,32.4,29.79,NW,305,3.0,6.0,97,0.02,,,0.16,VWS V14.01,2013-10-21 00:11:00,
2013-10-20 19:30:00,33.4,32.6,29.80,WNW,298,4.0,8.0,97,0.02,,,0.16,VWS V14.01,2013-10-21 00:30:00,
2013-10-20 19:57:00,33.6,32.8,29.81,WNW,302,7.0,9.0,97,0.01,,,0.16,VWS V14.01,2013-10-21 00:57:00,
2013-10-20 20:00:00,33.6,32.8,29.81,NW,311,9.0,9.0,97,0.01,,,0.16,VWS V14.01,2013-10-21 01:00:00,
2013-10-20 20:02:00,33.6,32.8,29.81,WNW,298,4.0,9.0,97,0.00,,,0.16,VWS V14.01,2013-10-21 01:02:00,
2013-10-20 20:07:00,33.7,32.9,29.81,NW,315,6.0,9.0,97,0.00,,,0.16,VWS V14.01,2013-10-21 01:07:00,
2013-10-20 20:30:00,33.6,32.6,29.82,NW,321,5.0,10.0,96,0.01,,,0.17,VWS V14.01,2013-10-21 01:30:00,
2013-10-20 21:00:00,33.0,32.0,29.82,WNW,300,3.0,7.0,96,0.01,,,0.17,VWS V14.01,2013-10-21 02:00:00,
2013-10-20 21:26:00,32.7,31.9,29.83,NW,314,2.0,7.0,97,0.01,,,0.17,VWS V14.01,2013-10-21 02:26:00,
2013-10-20 21:30:00,32.7,31.9,29.83,West,279,4.0,7.0,97,0.01,,,0.17,VWS V14.01,2013-10-21 02:30:00,
2013-10-20 21:31:00,32.6,31.8,29.83,WNW,296,3.0,7.0,97,0.01,,,0.17,VWS V14.01,2013-10-21 02:31:00,
2013-10-20 21:36:00,32.7,31.9,29.83,NW,305,2.0,5.0,97,0.00,,,0.17,VWS V14.01,2013-10-21 02:36:00,
2013-10-20 21:41:00,32.6,31.8,29.83,NW,304,3.0,5.0,97,0.00,,,0.17,VWS V14.01,2013-10-21 02:41:00,
2013-10-20 21:46:00,32.7,31.9,29.83,NW,317,1.0,5.0,97,0.00,,,0.17,VWS V14.01,2013-10-21 02:46:00,
2013-10-20 21:51:00,32.6,31.8,29.83,WNW,286,1.0,5.0,97,0.00,,,0.17,VWS V14.01,2013-10-21 02:51:00,
2013-10-20 21:56:00,32.6,31.8,29.83,NW,317,2.0,5.0,97,0.00,,,0.17,VWS V14.01,2013-10-21 02:56:00,
2013-10-20 22:00:00,32.7,31.9,29.84,WNW,284,2.0,6.0,97,0.00,,,0.17,VWS V14.01,2013-10-21 03:00:00,
2013-10-20 22:01:00,32.7,31.9,29.84,WNW,284,2.0,6.0,97,0.00,,,0.17,VWS V14.01,2013-10-21 03:01:00,
2013-10-20 22:06:00,32.8,32.0,29.84,WNW,302,1.0,5.0,97,0.00,,,0.17,VWS V14.01,2013-10-21 03:06:00,
2013-10-20 22:11:00,33.1,32.3,29.84,WNW,298,4.0,6.0,97,0.00,,,0.17,VWS V14.01,2013-10-21 03:11:00,
2013-10-20 22:16:00,33.4,32.6,29.84,WNW,295,4.0,7.0,97,0.00,,,0.17,VWS V14.01,2013-10-21 03:16:00,
2013-10-20 22:21:00,33.7,32.9,29.84,WNW,300,5.0,8.0,97,0.00,,,0.17,VWS V14.01,2013-10-21 03:21:00,
2013-10-20 22:26:00,34.0,33.2,29.84,NW,319,5.0,11.0,97,0.00,,,0.17,VWS V14.01,2013-10-21 03:26:00,
2013-10-20 22:30:00,34.2,33.4,29.84,NW,318,6.0,12.0,97,0.00,,,0.17,VWS V14.01,2013-10-21 03:30:00,
2013-10-20 22:31:00,34.2,33.4,29.84,NW,312,6.0,12.0,97,0.00,,,0.17,VWS V14.01,2013-10-21 03:31:00,
2013-10-20 22:36:00,34.4,33.6,29.84,NNW,328,12.0,12.0,97,0.00,,,0.17,VWS V14.01,2013-10-21 03:36:00,
2013-10-20 22:41:00,34.5,33.5,29.84,NW,323,6.0,13.0,96,0.00,,,0.17,VWS V14.01,2013-10-21 03:41:00,
2013-10-20 23:00:00,34.7,33.2,29.85,NW,325,9.0,16.0,94,0.01,,,0.18,VWS V14.01,2013-10-21 04:00:00,
2013-10-20 23:30:00,34.4,32.3,29.86,NNW,327,9.0,16.0,92,0.01,,,0.18,VWS V14.01,2013-10-21 04:30:00,